Regional Weather Roundup
Issued by NWS Upton, NY

Current Version | Previous Version | Text Only | Print | Product List | Glossary On
Versions: 1 2 3 4 5 6 7 8 9 10 11 12 13 14 15 16 17 18 19 20 21 22 23 24 25 26 27 28 29 30 31 32 33 34 35 36 37 38 39 40 41 42 43 44 45 46 47 48 49
324
ASUS41 KOKX 130604
RWROKX

REGIONAL WEATHER ROUNDUP
NATIONAL WEATHER SERVICE NEW YORK NY
100 AM EST SAT FEB 13 2016

NOTE: "FAIR" INDICATES FEW OR NO CLOUDS BELOW 12,000 FEET WITH NO
SIGNIFICANT WEATHER AND/OR OBSTRUCTIONS TO VISIBILITY.

NYZ071-072-176-178-NJZ106-104-130700-
NEW YORK CITY METRO AREA


CITY           SKY/WX    TMP DP  RH WIND       PRES   REMARKS
CENTRAL PARK   CLOUDY    22   8  55 VRB5      29.92F WCI  16
LAGUARDIA APRT CLOUDY    23   9  55 W15       29.91F WCI  10
KENNEDY INTL   CLOUDY    24  10  55 W12       29.93F WCI  13
NEWARK/LIBERTY CLOUDY    21  11  65 W10       29.93F WCI  10
BRNX BOT. GARD   N/A     23  10  58 W10       29.92F WCI  12
TETERBORO      CLOUDY    22   9  57 W10       29.91F WCI  11
$$

NYZ177-179-078>081-130700-
LONG ISLAND NEW YORK

CITY           SKY/WX    TMP DP  RH WIND       PRES   REMARKS
FARMINGDALE    CLOUDY    23   9  55 W10       29.91F WCI  12
ISLIP          CLOUDY    22   9  57 W7        29.89F WCI  13
SHIRLEY        CLOUDY    21  10  62 W7        29.90F WCI  12
RIVERHEAD        N/A     23   9  54 NW5       29.87F WCI  17
WESTHAMPTON    PTCLDY    17  12  80 W7        29.90F WCI   8
EAST HAMPTON   LGT SNOW  21  17  86 NW3       29.88F
MONTAUK POINT    N/A     23  19  85 NW9       29.88F WCI  13
$$

NYZ052-065-067-130700-
HUDSON VALLEY

CITY           SKY/WX    TMP DP  RH WIND       PRES   REMARKS
WHITE PLAINS   MOCLDY    20   9  62 W9        29.86F WCI   9
NEWBURGH       CLOUDY    18  14  86 W9        29.87F WCI   6
MONTGOMERY     CLOUDY    18  13  80 SW7       29.86F WCI   9
POUGHKEEPSIE   CLOUDY    22  10  60 SW9       29.88F WCI  12
ALBANY         PTCLDY    19   4  51 S6        29.85F WCI  11
$$

NJZ001-105-106-008-010-013-015-019>022-104-130700-
NEW JERSEY

CITY           SKY/WX    TMP DP  RH WIND       PRES   REMARKS
NEWARK/LIBERTY CLOUDY    21  11  65 W10       29.93F WCI  10
TETERBORO      CLOUDY    22   9  57 W10       29.91F WCI  11
CALDWELL       MOCLDY    20  11  68 W6        29.91F WCI  12
MORRISTOWN     CLOUDY    21  12  68 SW8       29.92F WCI  12
SOMERVILLE     CLOUDY    20  12  71 CALM      29.91F
SUSSEX         LGT SNOW  18  13  80 SW6       29.86F WCI  10
ANDOVER          N/A     18  13  80 VRB5      29.87F WCI  11
TRENTON        CLOUDY    20  14  77 W8        29.93F WCI  10
MILLVILLE      CLOUDY    17  16  95 CALM      29.96F
ATLANTIC CITY  CLOUDY    21  18  88 W5        29.96F WCI  15
WRIGHTSTOWN    FLURRIES  19  19 100 W8        29.91F WCI   9
TOMS RIVER     CLOUDY    19  12  73 W3        29.95F
BELMAR         MOCLDY    19   9  63 W9        29.92F WCI   9
$$

PAZ047>061-062-071-130700-
EASTERN PENNSYLVANIA

CITY           SKY/WX    TMP DP  RH WIND       PRES   REMARKS
PHILADELPHIA   CLOUDY    23  16  74 W10       29.97F WCI  12
ALLENTOWN      CLOUDY    20  14  77 W8        29.91F WCI  10
SCRANTON       CLOUDY    18  13  80 SW9       29.84F WCI   7
$$

CTZ002-004>006-009-010-012-RIZ004-006-007-MAZ004-011-015-130700-
SOUTHERN NEW ENGLAND
 IN CT

CITY           SKY/WX    TMP DP  RH WIND       PRES   REMARKS
BRADLEY INTL   PTCLDY    15   7  70 S6        29.86F WCI   6
HARTFORD       MOCLDY    19  10  68 S3        29.89F
DANBURY        CLOUDY    19   4  51 W8        29.87F WCI   9
WTRBRY/OXFORD  PTCLDY    16   1  53 CALM      29.84F
BRIDGEPORT     MOCLDY    22   8  55 W8        29.89F WCI  12
MERIDEN        CLOUDY    16   9  74 CALM      29.88F
NEW HAVEN      CLEAR     21   9  59 W6        29.89F WCI  13
CHESTER        FAIR      19  14  79 CALM      29.86F
GROTON         CLOUDY    20  17  88 NW6       29.87F WCI  12
WILLIMANTIC    PTCLDY    17  10  74 CALM      29.87F

 IN RI

CITY           SKY/WX    TMP DP  RH WIND       PRES   REMARKS
PROVIDENCE     CLOUDY    20  12  71 CALM      29.88F
BLOCK ISLAND   CLOUDY    21  18  86 N5        29.85F WCI  15
WESTERLY       CLOUDY    21  14  74 CALM      29.88F

 IN MA

CITY           SKY/WX    TMP DP  RH WIND       PRES   REMARKS
BOSTON         CLOUDY    21  10  62 SW6       29.88F WCI  13
WORCESTER      PTCLDY    11   5  77 SW8       29.79F WCI  -1
WESTFIELD      CLEAR      6   1  80 CALM      29.85F
PROVINCETOWN   FLURRIES  22  16  78 W7        29.89F WCI  13
NANTUCKET      LGT SNOW  24  19  81 N12       29.86F WCI  13
$$

ANZ330-335-338-340-345-350-353-355-130700-
COASTAL MARINE OBSERVATIONS


STATION/POSITION TIME  SKY/WX   TEMP    WIND        PRES    VSBY  WAVE
                                AIR SEA DIR/SP/G                  HT/PER
                 (UTC)          (F)     (DEG/KT/KT) (MB)    (MI)  (FT/S)
NY HARB ENTRANCE 0450            24 42  270/ 16/ 19 1013.5          2/ 3
4S FIRE IS       NOT AVBL
20S FIRE ISLAND  0450            26 40  290/ 19/ 25 1013.0          3/ 4
GREAT SOUTH BAY  NOT AVBL
23SW MTP         0550            25 45  300/ 17/ 21 1011.3          3/ 4
HUDSON CANYON    0450            28 48              1012.4          3/ 4
KINGS POINT      NOT AVBL
EXECUTION ROCKS  NOT AVBL
CENTRAL LI SOUND NOT AVBL
EASTERN LI SOUND NOT AVBL
ROBBINS REEF     NOT AVBL
$$


>>>>>>>>>>>>>>>>>>>>>>>>>>>> KEY <<<<<<<<<<<<<<<<<<<<<<<<<<<
>                                                          <
>     SKY/WX - SKY CONDITION/PRESENT WEATHER               <
>     TMP    - TEMPERATURE IN FAHRENHEIT                   <
>     DP     - DEWPOINT IN FAHRENHEIT                      <
>     RH     - RELATIVE HUMIDITY IN PERCENT                <
>     WIND   - DIRECTION AND SPEED IN MPH                  <
>     PRES   - MEAN SEA LEVEL PRESSURE IN INCHES OF HG     <
>     WCI    - WIND CHILL INDEX                            <
>     VSB    - VISIBILITY IN MILES                         <
>     HX     - HEAT INDEX                                  <
>     TC     - TEMPERATURE IN CELSIUS                      <
>     VRB    - VARIABLE WIND DIRECTION                     <
>                                                          <
>>>>>>>>>>>>>>>>>>>>>>>>>>>> KEY <<<<<<<<<<<<<<<<<<<<<<<<<<<






USA.gov is the U.S. government's official web portal to all federal, state and local government web resources and services.